This is the latest recevied weather packets stored in our database for station/object KD0SBN. If no packets are shown the sender has not sent any weather packets the latest 10 day(s).
| Time | Temp. | Humidity | Pressure | Rain* | Wind** | Luminosity | Snow |
|---|---|---|---|---|---|---|---|
| 1787740617 | 17.22° C | 80% | 1024.9 hPa | 0 mm | - | - | - |
| 1787740311 | 17.22° C | 79% | 1025 hPa | 0 mm | - | - | - |
| 1787740007 | 17.22° C | 80% | 1025 hPa | 0 mm | - | - | - |
| 1787739703 | 17.22° C | 80% | 1025.1 hPa | 0 mm | - | - | - |
| 1787739398 | 17.22° C | 80% | 1025 hPa | 0 mm | - | - | - |
| 1787739093 | 16.67° C | 81% | 1025.1 hPa | 0 mm | - | - | - |
| 1787738790 | 17.22° C | 81% | 1025 hPa | 0 mm | - | - | - |
| 1787738486 | 17.22° C | 81% | 1024.9 hPa | 0 mm | - | - | - |
| 1787738183 | 16.67° C | 84% | 1025 hPa | 0 mm | - | - | - |
| 1787737879 | 16.67° C | 84% | 1025.1 hPa | 0 mm | - | - | - |
| 1787737574 | 16.67° C | 84% | 1025.1 hPa | 0 mm | - | - | - |
| 1787737269 | 16.67° C | 83% | 1025.1 hPa | 0 mm | - | - | - |
| 1787736964 | 16.67° C | 84% | 1025.1 hPa | 0 mm | - | - | - |
| 1787736660 | 16.11° C | 85% | 1025.3 hPa | 0 mm | - | - | - |
| 1787736356 | 16.11° C | 85% | 1025.5 hPa | 0 mm | - | - | - |
| 1787736054 | 16.11° C | 85% | 1025.5 hPa | 0 mm | - | - | - |
| 1787735753 | 16.11° C | 85% | 1025.3 hPa | 0 mm | - | - | - |
| 1787735449 | 16.67° C | 82% | 1025 hPa | 0 mm | - | - | - |
| 1787735148 | 17.22° C | 79% | 1025.1 hPa | 0 mm | - | - | - |
| 1787734843 | 18.33° C | 76% | 1025.1 hPa | 0 mm | - | - | - |
| 1787734543 | 18.89° C | 73% | 1025.1 hPa | 0 mm | - | - | - |
| 1787734239 | 18.89° C | 73% | 1024.9 hPa | 0 mm | - | - | - |
| 1787733938 | 18.89° C | 72% | 1025.1 hPa | 0 mm | - | - | - |
| 1787733638 | 18.89° C | 72% | 1025.3 hPa | 0 mm | - | - | - |
| 1787733334 | 18.89° C | 72% | 1025.1 hPa | 0 mm | - | - | - |
* Rain latest hour (hover to see other rain measurements)
** Current wind speed in m/s (hover to see current wind gust speed)